• In Deutschland
  • Länderverzeichnis
  • Für 7 Tage
  • Wassertemperatur
  • Satellitenkarten
  • Wetterkarte
  • Widgets
  • user-avatar
    Anmelden

    Stündliche Wetter La Paz

    Heute, 23 November, Donnerstag

    Zeit Temperatur Niederschläge Wind Luftdruck Luftfeuchtigkeit
    00:00 +7°C° 0 mm 2 m/S 474 mmHg 86%
    01:00 +8°C° 0 mm 1 m/S 474 mmHg 86%
    02:00 +7°C° 0 mm 1 m/S 474 mmHg 87%
    03:00 +7°C° 0 mm 1 m/S 474 mmHg 87%
    04:00 +7°C° 0 mm 1 m/S 474 mmHg 87%
    05:00 +8°C° 0 mm 1 m/S 474 mmHg 82%
    06:00 +8°C° 0 mm 1 m/S 475 mmHg 77%
    07:00 +9°C° 0 mm 1 m/S 475 mmHg 72%
    08:00 +10°C° 0 mm 1 m/S 476 mmHg 66%
    09:00 +12°C° 0 mm 2 m/S 477 mmHg 60%
    10:00 +13°C° 0 mm 2 m/S 477 mmHg 55%
    11:00 +14°C° 0,2 mm 2 m/S 477 mmHg 52%
    12:00 +13°C° 0,2 mm 3 m/S 477 mmHg 50%
    13:00 +14°C° 0,2 mm 3 m/S 477 mmHg 47%
    14:00 +14°C° 0,7 mm 3 m/S 476 mmHg 49%
    15:00 +14°C° 0,7 mm 3 m/S 476 mmHg 51%
    16:00 +13°C° 0,7 mm 3 m/S 475 mmHg 53%
    17:00 +12°C° 0,6 mm 3 m/S 475 mmHg 61%
    18:00 +11°C° 0,6 mm 3 m/S 475 mmHg 69%
    19:00 +9°C° 0,6 mm 3 m/S 474 mmHg 77%
    20:00 +9°C° 0,1 mm 2 m/S 475 mmHg 79%
    21:00 +8°C° 0,1 mm 2 m/S 475 mmHg 80%
    22:00 +8°C° 0,1 mm 2 m/S 475 mmHg 81%
    23:00 +8°C° 0,1 mm 1 m/S 475 mmHg 83%

    Morgen, 24 November, Freitag

    Zeit Temperatur Niederschläge Wind Luftdruck Luftfeuchtigkeit
    00:00 +8°C° 0,1 mm 1 m/S 474 mmHg 84%
    01:00 +8°C° 0,1 mm 1 m/S 474 mmHg 86%
    02:00 +7°C° 0 mm 1 m/S 473 mmHg 86%
    03:00 +7°C° 0 mm 1 m/S 473 mmHg 86%
    04:00 +7°C° 0 mm 1 m/S 473 mmHg 86%
    05:00 +8°C° 0 mm 1 m/S 474 mmHg 81%
    06:00 +8°C° 0 mm 0 m/S 475 mmHg 76%
    07:00 +9°C° 0 mm 0 m/S 476 mmHg 70%
    08:00 +11°C° 0,1 mm 1 m/S 477 mmHg 62%
    09:00 +13°C° 0,1 mm 1 m/S 478 mmHg 54%
    10:00 +15°C° 0,1 mm 2 m/S 479 mmHg 45%
    11:00 +15°C° 0,5 mm 2 m/S 478 mmHg 46%
    12:00 +16°C° 0,5 mm 3 m/S 478 mmHg 47%
    13:00 +16°C° 0,5 mm 3 m/S 478 mmHg 47%
    14:00 +14°C° 0,7 mm 3 m/S 477 mmHg 52%
    15:00 +13°C° 0,7 mm 4 m/S 476 mmHg 58%
    16:00 +12°C° 0,7 mm 4 m/S 475 mmHg 63%
    17:00 +11°C° 0,3 mm 4 m/S 475 mmHg 68%
    18:00 +10°C° 0,3 mm 4 m/S 475 mmHg 73%
    19:00 +9°C° 0,3 mm 3 m/S 475 mmHg 79%
    20:00 +9°C° 0,2 mm 3 m/S 475 mmHg 80%
    21:00 +8°C° 0,2 mm 3 m/S 476 mmHg 82%
    22:00 +8°C° 0,2 mm 2 m/S 476 mmHg 83%
    23:00 +8°C° 0,1 mm 2 m/S 475 mmHg 83%

    übermorgen, 25 November, Samstag

    Zeit Temperatur Niederschläge Wind Luftdruck Luftfeuchtigkeit
    00:00 +7°C° 0,1 mm 2 m/S 475 mmHg 82%
    01:00 +8°C° 0,1 mm 1 m/S 474 mmHg 82%
    02:00 +8°C° 0 mm 1 m/S 474 mmHg 82%
    03:00 +8°C° 0 mm 1 m/S 474 mmHg 83%
    04:00 +8°C° 0 mm 1 m/S 474 mmHg 83%
    05:00 +9°C° 0 mm 1 m/S 475 mmHg 77%
    06:00 +10°C° 0 mm 1 m/S 476 mmHg 71%
    07:00 +11°C° 0 mm 1 m/S 476 mmHg 65%
    08:00 +12°C° 0 mm 2 m/S 477 mmHg 60%
    09:00 +14°C° 0 mm 2 m/S 478 mmHg 54%
    10:00 +14°C° 0 mm 3 m/S 479 mmHg 48%
    11:00 +14°C° 0,3 mm 3 m/S 478 mmHg 49%
    12:00 +14°C° 0,3 mm 4 m/S 478 mmHg 50%
    13:00 +15°C° 0,3 mm 4 m/S 477 mmHg 51%
    14:00 +14°C° 0,2 mm 4 m/S 477 mmHg 55%
    15:00 +13°C° 0,2 mm 4 m/S 476 mmHg 58%
    16:00 +13°C° 0,2 mm 4 m/S 475 mmHg 62%
    17:00 +12°C° 0,2 mm 4 m/S 475 mmHg 68%
    18:00 +10°C° 0,2 mm 4 m/S 475 mmHg 75%
    19:00 +9°C° 0,2 mm 3 m/S 475 mmHg 82%
    20:00 +9°C° 0,6 mm 3 m/S 475 mmHg 82%
    21:00 +8°C° 0,6 mm 2 m/S 475 mmHg 82%
    22:00 +8°C° 0,6 mm 2 m/S 476 mmHg 83%
    23:00 +8°C° 0,1 mm 2 m/S 475 mmHg 82%

    26 November, Sonntag

    Zeit Temperatur Niederschläge Wind Luftdruck Luftfeuchtigkeit
    00:00 +8°C° 0,1 mm 2 m/S 475 mmHg 82%
    01:00 +7°C° 0,1 mm 2 m/S 474 mmHg 82%
    02:00 +7°C° 0,1 mm 2 m/S 474 mmHg 82%
    03:00 +8°C° 0,1 mm 1 m/S 474 mmHg 82%
    04:00 +8°C° 0,1 mm 1 m/S 474 mmHg 82%
    05:00 +9°C° 0 mm 1 m/S 474 mmHg 78%
    06:00 +9°C° 0 mm 1 m/S 475 mmHg 74%
    07:00 +9°C° 0 mm 2 m/S 476 mmHg 71%
    08:00 +10°C° 0,2 mm 2 m/S 476 mmHg 66%
    09:00 +11°C° 0,2 mm 3 m/S 477 mmHg 61%
    10:00 +12°C° 0,2 mm 3 m/S 477 mmHg 56%
    11:00 +13°C° 0,4 mm 3 m/S 477 mmHg 55%
    12:00 +13°C° 0,4 mm 3 m/S 476 mmHg 55%
    13:00 +13°C° 0,4 mm 4 m/S 476 mmHg 54%
    14:00 +13°C° 1,1 mm 4 m/S 475 mmHg 59%
    15:00 +12°C° 1,1 mm 4 m/S 474 mmHg 64%
    16:00 +10°C° 1,1 mm 5 m/S 474 mmHg 69%
    17:00 +10°C° 0,2 mm 4 m/S 474 mmHg 74%
    18:00 +8°C° 0,2 mm 4 m/S 474 mmHg 79%
    19:00 +8°C° 0,2 mm 3 m/S 474 mmHg 84%
    20:00 +8°C° 0,2 mm 3 m/S 474 mmHg 84%
    21:00 +7°C° 0,2 mm 2 m/S 474 mmHg 84%
    22:00 +7°C° 0,2 mm 2 m/S 474 mmHg 83%
    23:00 +7°C° 0 mm 2 m/S 474 mmHg 83%

    27 November, Montag

    Zeit Temperatur Niederschläge Wind Luftdruck Luftfeuchtigkeit
    00:00 +8°C° 0 mm 1 m/S 473 mmHg 82%
    01:00 +8°C° 0 mm 1 m/S 473 mmHg 82%
    02:00 +8°C° 0,1 mm 1 m/S 473 mmHg 81%
    03:00 +8°C° 0,1 mm 1 m/S 473 mmHg 81%
    04:00 +8°C° 0,1 mm 1 m/S 473 mmHg 80%
    05:00 +9°C° 0,1 mm 1 m/S 474 mmHg 75%
    06:00 +9°C° 0,1 mm 1 m/S 474 mmHg 70%
    07:00 +10°C° 0,1 mm 1 m/S 475 mmHg 64%
    08:00 +12°C° 0,1 mm 2 m/S 476 mmHg 58%
    09:00 +12°C° 0,1 mm 3 m/S 477 mmHg 52%
    10:00 +13°C° 0,1 mm 3 m/S 477 mmHg 46%
    11:00 +14°C° 0,3 mm 4 m/S 477 mmHg 46%
    12:00 +14°C° 0,3 mm 4 m/S 477 mmHg 46%
    13:00 +14°C° 0,3 mm 4 m/S 477 mmHg 46%
    14:00 +14°C° 0,4 mm 4 m/S 476 mmHg 49%
    15:00 +13°C° 0,4 mm 4 m/S 476 mmHg 52%
    16:00 +12°C° 0,4 mm 4 m/S 475 mmHg 55%
    17:00 +11°C° 0 mm 4 m/S 475 mmHg 62%
    18:00 +10°C° 0 mm 4 m/S 474 mmHg 69%
    19:00 +8°C° 0 mm 3 m/S 474 mmHg 77%
    20:00 +8°C° 0 mm 3 m/S 474 mmHg 77%
    21:00 +8°C° 0 mm 3 m/S 474 mmHg 77%
    22:00 +7°C° 0 mm 2 m/S 475 mmHg 78%
    23:00 +7°C° 0 mm 2 m/S 474 mmHg 78%

    28 November, Dienstag

    Zeit Temperatur Niederschläge Wind Luftdruck Luftfeuchtigkeit
    00:00 +8°C° 0 mm 1 m/S 474 mmHg 77%
    01:00 +7°C° 0 mm 1 m/S 473 mmHg 77%
    02:00 +7°C° 0 mm 1 m/S 473 mmHg 77%
    03:00 +7°C° 0 mm 1 m/S 473 mmHg 77%
    04:00 +7°C° 0 mm 1 m/S 473 mmHg 77%
    05:00 +8°C° 0 mm 1 m/S 475 mmHg 72%
    06:00 +9°C° 0 mm 1 m/S 476 mmHg 66%
    07:00 +9°C° 0 mm 2 m/S 477 mmHg 60%
    08:00 +10°C° 0,1 mm 3 m/S 477 mmHg 56%
    09:00 +11°C° 0,1 mm 4 m/S 478 mmHg 52%
    10:00 +13°C° 0,1 mm 5 m/S 479 mmHg 49%
    11:00 +13°C° 0,2 mm 5 m/S 478 mmHg 49%
    12:00 +13°C° 0,2 mm 5 m/S 478 mmHg 50%
    13:00 +13°C° 0,2 mm 5 m/S 478 mmHg 50%
    14:00 +12°C° 0,3 mm 5 m/S 477 mmHg 56%
    15:00 +10°C° 0,3 mm 5 m/S 476 mmHg 61%
    16:00 +9°C° 0,3 mm 5 m/S 476 mmHg 67%
    17:00 +8°C° 0 mm 5 m/S 475 mmHg 71%
    18:00 +7°C° 0 mm 4 m/S 475 mmHg 76%
    19:00 +6°C° 0 mm 4 m/S 475 mmHg 81%
    20:00 +7°C° 0 mm 3 m/S 475 mmHg 81%
    21:00 +7°C° 0 mm 3 m/S 475 mmHg 82%
    22:00 +7°C° 0 mm 2 m/S 475 mmHg 83%
    23:00 +6°C° 0,1 mm 2 m/S 475 mmHg 84%
    Mehr zeigen